Home > Weather > Aktau > Past weeks

Flag for Kazakhstan Weather for the Past 2 Weeks in Aktau, Kazakhstan

Now
23 °F

Clear.


Feels Like: 14 °F
Forecast: 31 / 39 °F
Wind: 8 mph from Southeast

Location: Aktau

Current Time: Feb 10, 2016 at 8:45:23 AM

Latest Report: Feb 10, 2016 at 8:00 AM


Visibility: 10 mi

Pressure: 30.60 "Hg

Humidity: 80%

Dew point: 18 °F

Location of AktauLocation

Historic Weather in Aktau — Graph

°F

Aktau Temperature Yesterday

Maximum temperature yesterday: 34 °F (at 3:30 PM)
Minimum temperature yesterday: 21 °F (at 8:30 AM)
Average temperature yesterday: 27 °F

High & Low Weather Summary for the Past Weeks

 TemperatureHumidityPressure
High54 °F (Feb 5, 2:00 PM)93% (Jan 28, 5:00 PM)30.66 "Hg (Jan 28, 5:00 PM)
Low14 °F (Jan 28, 12:30 AM)50% (Jan 27, 4:00 PM)29.65 "Hg (Feb 6, 8:30 AM)
Average35 °F77%30.22 "Hg
* Reported Jan 26 7:00 AM — Feb 10 7:00 AM, Aktau, Weather by CustomWeather, © 2016

Note: Actual official high and low records may vary slightly from our data, if they occured in-between our weather recording intervals... More about our weather records

Advertising

Aktau Weather History for the Previous 24 Hours

 ConditionsComfort  
Time TempWeatherWind HumidityBarometerVisibility
7:00 AM
Wed, Feb 10
23 °FClear.8 mph80%30.60 "Hg10 mi
6:30 AM23 °FClear.8 mph80%30.60 "Hg10 mi
5:30 AM25 °FClear.8 mph80%30.60 "Hg10 mi
5:00 AM23 °FClear.8 mph86%30.60 "Hg10 mi
4:30 AM25 °FClear.6 mph80%30.60 "Hg10 mi
4:00 AM23 °FClear.8 mph86%30.60 "Hg10 mi
3:30 AM23 °FClear.8 mph86%30.63 "Hg10 mi
2:30 AM23 °FClear.8 mph86%30.63 "Hg10 mi
2:00 AM23 °FClear.8 mph86%30.63 "Hg10 mi
1:30 AM25 °FClear.8 mph80%30.63 "Hg10 mi
1:00 AM25 °FClear.8 mph80%30.63 "Hg10 mi
12:30 AM27 °FClear.6 mph80%30.63 "Hg10 mi
12:00 AM25 °FClear.6 mph86%30.63 "Hg10 mi
11:30 PM
Tue, Feb 9
25 °FClear.6 mph86%30.63 "Hg10 mi
11:00 PM25 °FClear.3 mph86%30.63 "Hg10 mi
10:30 PM27 °FClear.6 mph80%30.63 "Hg10 mi
10:00 PM27 °FClear.6 mph80%30.63 "Hg10 mi
9:30 PM27 °FClear.6 mph80%30.63 "Hg10 mi
9:00 PM28 °FClear.6 mph74%30.63 "Hg10 mi
8:30 PM28 °FSunny.3 mph74%30.63 "Hg10 mi
8:00 PM30 °FSunny.3 mph69%30.63 "Hg10 mi
7:30 PM32 °FSunny.6 mph64%30.63 "Hg10 mi
7:00 PM32 °FSunny.6 mph60%30.60 "Hg10 mi
6:30 PM34 °FSunny.8 mph56%30.60 "Hg10 mi
6:00 PM34 °FSunny.8 mph51%30.60 "Hg10 mi
5:30 PM34 °FSunny.8 mph51%30.60 "Hg10 mi
5:00 PM34 °FSunny.8 mph51%30.60 "Hg10 mi
4:30 PM34 °FSunny.8 mph51%30.60 "Hg10 mi
3:30 PM34 °FPassing clouds.3 mph56%30.60 "HgN/A
3:00 PM32 °FPassing clouds.3 mph64%30.63 "HgN/A
2:30 PM32 °FPassing clouds.6 mph60%30.63 "HgN/A
2:00 PM30 °FPassing clouds.6 mph64%30.63 "HgN/A
1:00 PM30 °FScattered clouds.8 mph64%30.66 "HgN/A
12:30 PM28 °FScattered clouds.8 mph69%30.66 "HgN/A
12:00 PM27 °FScattered clouds.8 mph80%30.66 "HgN/A
11:30 AM27 °FScattered clouds.8 mph80%30.66 "HgN/A
11:00 AM27 °FSunny.8 mph80%30.66 "Hg10 mi
10:30 AM27 °FClear.8 mph74%30.66 "Hg10 mi
10:00 AM25 °FClear.8 mph80%30.63 "Hg10 mi
9:30 AM23 °FClear.8 mph86%30.63 "Hg10 mi
8:30 AM21 °FClear.6 mph86%30.63 "Hg10 mi
8:00 AM23 °FPassing clouds.6 mph80%30.60 "HgN/A
Weather by CustomWeather, © 2016

See weather overviewHow to use our weather pages